| time (UTC) | temp F | wind direction | speed MPH | gust MPH | rain 1hr in | rain 24hr in | rain mn in | humidity % | barometer mb |
| 20260505022549 | 59 | 255 | 18.0 | 19.0 | 0.00 | 0.02 | 0.02 | 91 | 1020.5 |
| 20260505022038 | 58 | 255 | 18.0 | 19.0 | 0.00 | 0.02 | 0.02 | 91 | 1020.6 |
| 20260505021639 | 58 | 255 | 18.0 | 19.0 | 0.00 | 0.02 | 0.02 | 91 | 1020.5 |
| 20260505021031 | 58 | 255 | 18.0 | 19.0 | 0.00 | 0.02 | 0.02 | 91 | 1020.6 |
| 20260505020536 | 58 | 255 | 18.0 | 19.0 | 0.00 | 0.02 | 0.02 | 91 | 1020.6 |
| 20260505020139 | 58 | 255 | 18.0 | 19.0 | 0.00 | 0.02 | 0.02 | 91 | 1020.7 |
| 20260505015540 | 58 | 255 | 18.0 | 19.0 | 0.00 | 0.02 | 0.02 | 91 | 1020.5 |
| 20260505015024 | 58 | 255 | 18.0 | 19.0 | 0.00 | 0.02 | 0.02 | 91 | 1020.4 |
| 20260505014646 | 58 | 255 | 18.0 | 19.0 | 0.00 | 0.02 | 0.02 | 91 | 1020.3 |
| 20260505014046 | 58 | 255 | 18.0 | 19.0 | 0.00 | 0.02 | 0.02 | 91 | 1020.3 |
| 20260505013518 | 58 | 255 | 18.0 | 19.0 | 0.00 | 0.02 | 0.02 | 91 | 1020.2 |
| 20260505013150 | 59 | 255 | 18.0 | 19.0 | 0.00 | 0.02 | 0.02 | 91 | 1020.5 |
| 20260505012535 | 59 | 255 | 18.0 | 19.0 | 0.00 | 0.02 | 0.02 | 91 | 1020.3 |
| 20260505012026 | 59 | 255 | 18.0 | 19.0 | 0.00 | 0.02 | 0.02 | 91 | 1020.4 |
| 20260505011643 | 59 | 255 | 18.0 | 30.0 | 0.00 | 0.02 | 0.02 | 90 | 1020.7 |
| 20260505011028 | 60 | 255 | 18.0 | 30.0 | 0.00 | 0.02 | 0.02 | 91 | 1020.5 |
| 20260505010521 | 59 | 279 | 12.0 | 19.0 | 0.00 | 0.02 | 0.02 | 90 | 1020.4 |
| 20260505010158 | 59 | 261 | 8.0 | 13.0 | 0.00 | 0.02 | 0.02 | 90 | 1020.3 |
| 20260505005533 | 59 | 262 | 9.0 | 14.0 | 0.00 | 0.02 | 0.02 | 90 | 1020.4 |
| 20260505005039 | 59 | 261 | 9.0 | 14.0 | 0.00 | 0.02 | 0.02 | 90 | 1020.4 |
| 20260505004640 | 59 | 262 | 8.0 | 15.0 | 0.00 | 0.02 | 0.02 | 90 | 1020.2 |
| 20260505004031 | 59 | 265 | 9.0 | 16.0 | 0.00 | 0.02 | 0.02 | 90 | 1020.0 |
| 20260505003525 | 59 | 265 | 10.0 | 16.0 | 0.00 | 0.02 | 0.02 | 90 | 1020.1 |
| 20260505003147 | 59 | 265 | 10.0 | 15.0 | 0.00 | 0.02 | 0.02 | 90 | 1020.0 |
| 20260505002518 | 59 | 262 | 9.0 | 13.0 | 0.00 | 0.02 | 0.02 | 90 | 1020.0 |
| 20260505002031 | 59 | 262 | 8.0 | 16.0 | 0.00 | 0.02 | 0.02 | 90 | 1019.9 |
| 20260505001609 | 59 | 279 | 9.0 | 16.0 | 0.00 | 0.02 | 0.02 | 90 | 1019.7 |
| 20260505001029 | 59 | 261 | 11.0 | 16.0 | 0.00 | 0.02 | 0.02 | 91 | 1019.6 |
| 20260505000526 | 59 | 262 | 8.0 | 17.0 | 0.00 | 0.02 | 0.02 | 91 | 1019.7 |
| 20260505000155 | 59 | 259 | 11.0 | 17.0 | 0.00 | 0.02 | 0.02 | 90 | 1019.7 |
| 20260504235520 | 59 | 261 | 8.0 | 15.0 | 0.00 | 0.02 | 0.02 | 90 | 1019.5 |
| 20260504235026 | 59 | 298 | 8.0 | 17.0 | 0.00 | 0.02 | 0.02 | 91 | 1019.6 |
| 20260504234642 | 60 | 273 | 11.0 | 18.0 | 0.00 | 0.02 | 0.02 | 91 | 1019.7 |
| 20260504234035 | 60 | 261 | 10.0 | 18.0 | 0.00 | 0.02 | 0.02 | 90 | 1019.6 |
| 20260504233523 | 60 | 257 | 11.0 | 20.0 | 0.00 | 0.02 | 0.02 | 90 | 1019.6 |
| 20260504233154 | 60 | 261 | 13.0 | 20.0 | 0.00 | 0.02 | 0.02 | 90 | 1019.5 |
| 20260504232532 | 59 | 261 | 13.0 | 19.0 | 0.00 | 0.02 | 0.02 | 91 | 1019.5 |
| 20260504232050 | 59 | 259 | 11.0 | 19.0 | 0.00 | 0.02 | 0.02 | 91 | 1019.5 |
| 20260504231703 | 59 | 269 | 12.0 | 17.0 | 0.00 | 0.02 | 0.02 | 90 | 1019.6 |
| 20260504231039 | 59 | 257 | 12.0 | 16.0 | 0.00 | 0.02 | 0.02 | 91 | 1019.7 |
| 20260504230524 | 59 | 255 | 10.0 | 18.0 | 0.00 | 0.02 | 0.02 | 91 | 1019.6 |
| 20260504230204 | 59 | 261 | 12.0 | 18.0 | 0.00 | 0.02 | 0.02 | 91 | 1019.6 |
| 20260504225532 | 59 | 279 | 10.0 | 18.0 | 0.00 | 0.02 | 0.02 | 91 | 1019.5 |
| 20260504225024 | 59 | 289 | 11.0 | 18.0 | 0.00 | 0.02 | 0.02 | 91 | 1019.3 |
| 20260504224654 | 59 | 271 | 9.0 | 19.0 | 0.00 | 0.02 | 0.02 | 90 | 1019.4 |
| 20260504224041 | 59 | 261 | 12.0 | 20.0 | 0.00 | 0.02 | 0.02 | 90 | 1019.3 |
| 20260504223544 | 59 | 265 | 15.0 | 20.0 | 0.00 | 0.02 | 0.02 | 90 | 1019.4 |
| 20260504223147 | 59 | 259 | 10.0 | 15.0 | 0.01 | 0.02 | 0.02 | 90 | 1019.4 |
| 20260504222533 | 59 | 273 | 9.0 | 14.0 | 0.01 | 0.02 | 0.02 | 90 | 1019.3 |
| 20260504222024 | 59 | 261 | 9.0 | 14.0 | 0.01 | 0.02 | 0.02 | 90 | 1019.2 |
| 20260504221702 | 59 | 259 | 9.0 | 13.0 | 0.01 | 0.02 | 0.02 | 90 | 1019.1 |
| 20260504221022 | 59 | 259 | 9.0 | 15.0 | 0.01 | 0.02 | 0.02 | 90 | 1019.1 |
| 20260504220532 | 59 | 277 | 9.0 | 16.0 | 0.01 | 0.02 | 0.02 | 90 | 1019.1 |
| 20260504220215 | 59 | 268 | 9.0 | 18.0 | 0.01 | 0.02 | 0.02 | 90 | 1018.9 |
| 20260504215523 | 59 | 265 | 10.0 | 18.0 | 0.01 | 0.02 | 0.02 | 90 | 1018.8 |
| 20260504215046 | 59 | 259 | 12.0 | 18.0 | 0.01 | 0.02 | 0.02 | 90 | 1018.9 |
| 20260504214710 | 59 | 261 | 10.0 | 16.0 | 0.01 | 0.02 | 0.02 | 90 | 1018.8 |
| 20260504214041 | 59 | 292 | 11.0 | 18.0 | 0.01 | 0.02 | 0.02 | 90 | 1018.5 |
| 20260504213521 | 59 | 273 | 12.0 | 18.0 | 0.01 | 0.02 | 0.02 | 90 | 1018.5 |
| 20260504213153 | 59 | 261 | 10.0 | 15.0 | 0.00 | 0.01 | 0.01 | 90 | 1018.6 |
| 20260504212544 | 60 | 259 | 9.0 | 16.0 | 0.00 | 0.01 | 0.01 | 89 | 1018.6 |
| 20260504212046 | 60 | 262 | 10.0 | 16.0 | 0.00 | 0.01 | 0.01 | 89 | 1018.7 |
| 20260504211654 | 60 | 265 | 12.0 | 19.0 | 0.00 | 0.01 | 0.01 | 89 | 1018.8 |
| 20260504211039 | 60 | 277 | 12.0 | 19.0 | 0.00 | 0.01 | 0.01 | 89 | 1018.7 |
| 20260504210540 | 60 | 259 | 10.0 | 17.0 | 0.00 | 0.01 | 0.01 | 89 | 1018.8 |
| 20260504210222 | 60 | 257 | 10.0 | 24.0 | 0.00 | 0.01 | 0.01 | 88 | 1018.7 |
| 20260504205532 | 60 | 259 | 13.0 | 30.0 | 0.00 | 0.01 | 0.01 | 88 | 1018.7 |
| 20260504205035 | 60 | 257 | 15.0 | 32.0 | 0.00 | 0.01 | 0.01 | 88 | 1018.5 |
| 20260504204641 | 60 | 259 | 20.0 | 30.0 | 0.00 | 0.01 | 0.01 | 88 | 1018.3 |
| 20260504204032 | 60 | 259 | 10.0 | 23.0 | 0.00 | 0.01 | 0.01 | 88 | 1018.1 |
| 20260504203530 | 60 | 268 | 13.0 | 26.0 | 0.00 | 0.01 | 0.01 | 88 | 1018.3 |
| 20260504203207 | 61 | 261 | 19.0 | 26.0 | 0.00 | 0.01 | 0.01 | 87 | 1018.1 |
| 20260504202541 | 61 | 261 | 15.0 | 23.0 | 0.00 | 0.01 | 0.01 | 87 | 1018.2 |
| 20260504202036 | 61 | 262 | 10.0 | 15.0 | 0.00 | 0.01 | 0.01 | 87 | 1018.3 |
| 20260504201705 | 61 | 259 | 7.0 | 17.0 | 0.00 | 0.01 | 0.01 | 87 | 1018.1 |
| 20260504201037 | 61 | 262 | 9.0 | 17.0 | 0.00 | 0.01 | 0.01 | 87 | 1018.3 |
| 20260504200531 | 61 | 262 | 8.0 | 12.0 | 0.00 | 0.01 | 0.01 | 87 | 1018.3 |
| 20260504200224 | 61 | 262 | 7.0 | 12.0 | 0.00 | 0.01 | 0.01 | 87 | 1018.1 |
| 20260504195529 | 61 | 261 | 7.0 | 14.0 | 0.00 | 0.01 | 0.01 | 87 | 1017.9 |
| 20260504195042 | 61 | 277 | 7.0 | 14.0 | 0.00 | 0.01 | 0.01 | 87 | 1018.2 |
| 20260504194707 | 61 | 262 | 9.0 | 13.0 | 0.00 | 0.01 | 0.01 | 87 | 1018.5 |
| 20260504194025 | 61 | 259 | 9.0 | 15.0 | 0.00 | 0.01 | 0.01 | 87 | 1018.3 |
| 20260504193542 | 62 | 275 | 10.0 | 15.0 | 0.00 | 0.01 | 0.01 | 87 | 1018.4 |
| 20260504193207 | 62 | 262 | 9.0 | 14.0 | 0.00 | 0.01 | 0.01 | 86 | 1018.4 |
| 20260504192537 | 62 | 266 | 8.0 | 17.0 | 0.00 | 0.01 | 0.01 | 86 | 1017.9 |
| 20260504192046 | 62 | 275 | 8.0 | 18.0 | 0.00 | 0.01 | 0.01 | 86 | 1017.8 |
| 20260504191701 | 62 | 267 | 10.0 | 20.0 | 0.00 | 0.01 | 0.01 | 86 | 1018.1 |
| 20260504191031 | 63 | 265 | 14.0 | 20.0 | 0.00 | 0.01 | 0.01 | 85 | 1018.2 |
| 20260504190525 | 63 | 261 | 14.0 | 19.0 | 0.00 | 0.01 | 0.01 | 85 | 1018.3 |
| 20260504190215 | 63 | 270 | 13.0 | 18.0 | 0.00 | 0.01 | 0.01 | 85 | 1018.2 |
| 20260504185549 | 63 | 269 | 10.0 | 14.0 | 0.00 | 0.01 | 0.01 | 85 | 1018.2 |
| 20260504185034 | 63 | 268 | 6.0 | 13.0 | 0.00 | 0.01 | 0.01 | 85 | 1017.9 |
| 20260504184715 | 63 | 265 | 8.0 | 14.0 | 0.00 | 0.01 | 0.01 | 85 | 1017.9 |
| 20260504184045 | 63 | 261 | 9.0 | 14.0 | 0.00 | 0.01 | 0.01 | 84 | 1018.1 |
| 20260504183520 | 64 | 262 | 8.0 | 14.0 | 0.00 | 0.01 | 0.01 | 84 | 1018.0 |
| 20260504183118 | 64 | 261 | 10.0 | 17.0 | 0.00 | 0.01 | 0.01 | 84 | 1018.2 |
| 20260504182538 | 64 | 269 | 10.0 | 17.0 | 0.00 | 0.01 | 0.01 | 83 | 1018.3 |
| 20260504182038 | 65 | 269 | 11.0 | 18.0 | 0.00 | 0.01 | 0.01 | 83 | 1018.1 |
| 20260504181711 | 65 | 282 | 10.0 | 18.0 | 0.00 | 0.01 | 0.01 | 82 | 1018.0 |
| 20260504181048 | 65 | 273 | 10.0 | 19.0 | 0.00 | 0.01 | 0.01 | 83 | 1018.0 |
| 20260504180535 | 65 | 259 | 13.0 | 20.0 | 0.00 | 0.01 | 0.01 | 83 | 1018.3 |
| 20260504180209 | 65 | 263 | 13.0 | 20.0 | 0.00 | 0.01 | 0.01 | 82 | 1018.2 |
| 20260504175528 | 66 | 259 | 14.0 | 20.0 | 0.00 | 0.01 | 0.01 | 81 | 1018.2 |
| 20260504175044 | 66 | 259 | 10.0 | 16.0 | 0.00 | 0.01 | 0.01 | 82 | 1018.1 |
| 20260504174704 | 65 | 262 | 8.0 | 18.0 | 0.00 | 0.01 | 0.01 | 82 | 1018.2 |
| 20260504174047 | 65 | 261 | 10.0 | 18.0 | 0.00 | 0.01 | 0.01 | 81 | 1018.1 |
| 20260504173523 | 65 | 261 | 9.0 | 20.0 | 0.00 | 0.01 | 0.01 | 82 | 1018.2 |
| 20260504173123 | 65 | 259 | 10.0 | 20.0 | 0.00 | 0.01 | 0.01 | 83 | 1018.2 |
| 20260504172530 | 64 | 262 | 11.0 | 19.0 | 0.00 | 0.01 | 0.01 | 83 | 1018.3 |
| 20260504172020 | 64 | 271 | 13.0 | 19.0 | 0.00 | 0.01 | 0.01 | 82 | 1018.5 |
| 20260504171650 | 64 | 263 | 12.0 | 18.0 | 0.00 | 0.01 | 0.01 | 83 | 1018.5 |
| 20260504171034 | 64 | 265 | 10.0 | 19.0 | 0.00 | 0.01 | 0.01 | 83 | 1018.5 |
| 20260504170537 | 64 | 268 | 13.0 | 19.0 | 0.00 | 0.01 | 0.01 | 83 | 1018.6 |
| 20260504170134 | 64 | 286 | 11.0 | 16.0 | 0.00 | 0.01 | 0.01 | 83 | 1018.6 |
| 20260504160208 | 64 | 273 | 11.0 | 19.0 | 0.00 | 0.02 | 0.01 | 82 | 1019.3 |
| 20260504151036 | 65 | 262 | 12.0 | 18.0 | 0.00 | 0.02 | 0.01 | 81 | 1019.9 |
| 20260504150544 | 65 | 284 | 9.0 | 21.0 | 0.00 | 0.02 | 0.01 | 80 | 1019.7 |
| 20260504150201 | 66 | 263 | 16.0 | 21.0 | 0.00 | 0.02 | 0.01 | 78 | 1019.9 |
| 20260504141044 | 65 | 265 | 11.0 | 18.0 | 0.00 | 0.02 | 0.01 | 80 | 1019.9 |
| 20260504140538 | 65 | 268 | 13.0 | 18.0 | 0.00 | 0.02 | 0.01 | 80 | 1019.8 |
| 20260504140223 | 64 | 261 | 11.0 | 16.0 | 0.00 | 0.02 | 0.01 | 81 | 1020.0 |
| 20260504130543 | 60 | 265 | 4.0 | 9.0 | 0.00 | 0.02 | 0.01 | 85 | 1020.0 |
| 20260504130145 | 60 | 286 | 4.0 | 12.0 | 0.00 | 0.02 | 0.01 | 87 | 1020.0 |
| 20260504120151 | 53 | 279 | 7.0 | 11.0 | 0.00 | 0.02 | 0.01 | 90 | 1019.9 |
| 20260504110545 | 50 | 265 | 1.0 | 5.0 | 0.00 | 0.02 | 0.01 | 91 | 1019.7 |
| 20260504110150 | 49 | 250 | 2.0 | 5.0 | 0.00 | 0.02 | 0.01 | 92 | 1019.6 |
| 20260504100521 | 46 | 137 | 0.0 | 0.0 | 0.00 | 0.02 | 0.01 | 92 | 1018.9 |
| 20260504100207 | 47 | 137 | 0.0 | 0.0 | 0.00 | 0.02 | 0.01 | 92 | 1019.1 |
| 20260504081624 | 44 | 137 | 0.0 | 0.0 | 0.00 | 0.02 | 0.01 | 93 | 1018.2 |
| 20260504081111 | 44 | 137 | 0.0 | 0.0 | 0.00 | 0.02 | 0.01 | 93 | 1018.2 |
| 20260504080521 | 44 | 137 | 0.0 | 0.0 | 0.00 | 0.02 | 0.01 | 93 | 1018.4 |
| 20260504080140 | 44 | 137 | 0.0 | 0.0 | 0.00 | 0.02 | 0.01 | 93 | 1018.4 |
| 20260504070202 | 43 | 137 | 0.0 | 0.0 | 0.00 | 0.02 | 0.01 | 93 | 1018.2 |
| 20260504060214 | 41 | 137 | 0.0 | 0.0 | 0.00 | 0.03 | 0.01 | 93 | 1019.2 |
| 20260504050532 | 39 | 137 | 0.0 | 0.0 | 0.00 | 0.03 | 0.01 | 92 | 1019.8 |
| 20260504050219 | 39 | 137 | 0.0 | 0.0 | 0.00 | 0.03 | 0.01 | 92 | 1019.9 |
| 20260504045524 | 39 | 137 | 0.0 | 0.0 | 0.00 | 0.03 | 0.01 | 92 | 1019.9 |
| 20260504045040 | 39 | 137 | 0.0 | 0.0 | 0.01 | 0.03 | 0.01 | 92 | 1019.9 |
| 20260504044656 | 39 | 137 | 0.0 | 0.0 | 0.01 | 0.03 | 0.01 | 92 | 1020.0 |
| 20260504044042 | 39 | 137 | 0.0 | 2.0 | 0.01 | 0.03 | 0.01 | 92 | 1020.2 |
| 20260504043525 | 39 | 137 | 0.0 | 2.0 | 0.01 | 0.03 | 0.01 | 92 | 1020.2 |
| 20260504043206 | 40 | 119 | 0.0 | 1.0 | 0.01 | 0.03 | 0.01 | 92 | 1020.0 |
| 20260504042539 | 40 | 76 | 0.0 | 1.0 | 0.01 | 0.03 | 0.01 | 92 | 1020.1 |
| 20260504042040 | 40 | 93 | 0.0 | 1.0 | 0.01 | 0.03 | 0.01 | 92 | 1020.2 |
| 20260504041648 | 40 | 137 | 0.0 | 2.0 | 0.01 | 0.03 | 0.01 | 92 | 1020.0 |
| 20260504041023 | 40 | 67 | 0.0 | 2.0 | 0.01 | 0.03 | 0.01 | 92 | 1020.0 |
| 20260504040535 | 40 | 61 | 0.0 | 2.0 | 0.01 | 0.03 | 0.01 | 92 | 1020.2 |
| 20260504040219 | 40 | 9 | 0.0 | 2.0 | 0.01 | 0.03 | 0.01 | 92 | 1020.2 |
| 20260504035636 | 40 | 325 | 0.0 | 3.0 | 0.01 | 0.03 | 0.01 | 92 | 1020.3 |
| 20260504035038 | 40 | 325 | 0.0 | 3.0 | 0.00 | 0.02 | 0.00 | 92 | 1020.4 |
| 20260504034657 | 41 | 67 | 1.0 | 3.0 | 0.00 | 0.02 | 0.00 | 92 | 1020.4 |
| 20260504034045 | 41 | 265 | 1.0 | 2.0 | 0.00 | 0.02 | 0.00 | 92 | 1020.6 |
| 20260504033525 | 41 | 309 | 1.0 | 3.0 | 0.00 | 0.02 | 0.00 | 92 | 1020.6 |
| 20260504033117 | 41 | 265 | 0.0 | 3.0 | 0.00 | 0.02 | 0.00 | 92 | 1021.0 |
| 20260504032535 | 41 | 38 | 0.0 | 3.0 | 0.00 | 0.02 | 0.00 | 92 | 1020.9 |
| 20260504032034 | 41 | 265 | 1.0 | 4.0 | 0.00 | 0.02 | 0.00 | 92 | 1020.9 |
| 20260504031650 | 40 | 93 | 2.0 | 4.0 | 0.00 | 0.02 | 0.00 | 92 | 1020.7 |
| 20260504031047 | 40 | 51 | 2.0 | 4.0 | 0.00 | 0.02 | 0.00 | 92 | 1021.0 |
| 20260504030541 | 40 | 51 | 1.0 | 6.0 | 0.00 | 0.02 | 0.00 | 92 | 1020.9 |
| 20260504030207 | 40 | 291 | 1.0 | 6.0 | 0.00 | 0.02 | 0.00 | 92 | 1020.9 |
| 20260504025535 | 40 | 44 | 2.0 | 6.0 | 0.00 | 0.02 | 0.02 | 92 | 1021.0 |
| 20260504025022 | 40 | 44 | 3.0 | 6.0 | 0.00 | 0.02 | 0.02 | 92 | 1020.9 |
| 20260504024649 | 40 | 39 | 3.0 | 4.0 | 0.00 | 0.02 | 0.02 | 92 | 1021.0 |
| 20260504024023 | 40 | 265 | 1.0 | 5.0 | 0.00 | 0.02 | 0.02 | 92 | 1021.0 |
| 20260504023540 | 40 | 57 | 3.0 | 5.0 | 0.00 | 0.02 | 0.02 | 92 | 1021.1 |
| 20260504023152 | 40 | 41 | 2.0 | 5.0 | 0.00 | 0.02 | 0.02 | 92 | 1021.0 |